Simultaneous Nadir Overpasses (SNOs) Predictions

Prediction of SNOs between NOAA-15 and METOP-C Satellite Orbit:

Table of predicted SNOs for the next 14.0 days since TLE Epoch: 12/27/2021
Index Date (NOAA-15) Time (NOAA-15) Lat,Lon (NOAA-15) SZA (NOAA-15 ) Date (METOP-C) Time (METOP-C) Lat,Lon (METOP-C) SZA (METOP-C ) Distance(km) Time Diff (sec)
1 01/09/2022 11:42:01 -81.03,-137.31 75.29 01/09/2022 11:40:47 -81.04,-137.13 75.29 3.35 74
2 01/09/2022 12:32:29 81.03, 30.10 104.71 01/09/2022 12:31:29 81.03, 29.92 104.68 3.21 60
3 01/09/2022 13:23:03 -81.03,-162.55 75.30 01/09/2022 13:22:09 -81.04,-162.62 75.32 1.51 54
4 01/09/2022 14:13:31 81.03, 4.85 104.70 01/09/2022 14:12:50 81.04, 4.80 104.69 1.70 41
5 01/09/2022 15:04:06 -81.04, 171.84 75.33 01/09/2022 15:03:31 -81.03, 171.89 75.34 1.77 35
6 01/09/2022 15:54:34 81.04, -20.77 104.67 01/09/2022 15:54:12 81.03, -20.69 104.67 1.66 22
7 01/09/2022 16:45:08 -81.04, 146.59 75.34 01/09/2022 16:44:52 -81.04, 146.78 75.33 3.20 16
8 01/09/2022 17:35:35 81.04, -46.01 104.66 01/09/2022 17:35:33 81.03, -46.18 104.64 3.27 2
9 01/09/2022 18:26:09 -81.04, 121.35 75.35 01/09/2022 18:26:13 -81.03, 121.29 75.36 1.42 4
10 01/09/2022 19:16:37 81.04, -71.26 104.65 01/09/2022 19:16:54 81.04, -71.30 104.65 0.81 17
11 01/09/2022 20:07:11 -81.04, 96.10 75.36 01/09/2022 20:07:34 -81.04, 96.17 75.34 1.19 23
12 01/09/2022 20:57:39 81.04, -96.51 104.64 01/09/2022 20:58:15 81.05, -96.41 104.67 1.75 36
13 01/09/2022 21:48:13 -81.04, 70.86 75.37 01/09/2022 21:48:56 -81.04, 70.69 75.37 3.05 43
14 01/09/2022 22:38:41 81.04,-121.76 104.63 01/09/2022 22:39:37 81.04,-121.90 104.64 2.48 56
15 01/09/2022 23:29:15 -81.04, 45.61 75.38 01/09/2022 23:30:17 -81.05, 45.57 75.35 0.97 62



Historial Predications of SNOs between NOAA-15 and METOP-C
